Location: Narrabri
(30.3170°S, 149.7830°E)
Time: 21:04:21
(UTC+10:00)

Vanguard 1 Rocket - Visible Passes

Search period start: 14 August 2018 00:00
Search period end: 24 August 2018 00:00
Orbit: 650 x 4227 km, 34.3° (Epoch: 12 August)

Date Brightness Start Highest point End Pass type
(mag) Time Alt. Az. Time Alt. Az. Time Alt. Az.
14 Aug 7.3 19:07:59 10° WSW 19:12:26 63° NNW 19:15:00 32° NE visible
15 Aug 6.8 17:57:16 10° WSW 18:01:42 82° SSE 18:06:53 10° ENE visible
15 Aug 9.0 20:22:23 10° W 20:25:28 25° NW 20:25:28 25° NW visible
16 Aug 7.9 19:11:25 10° W 19:15:42 43° NNW 19:18:42 23° NNE visible
17 Aug 6.9 18:00:33 10° WSW 18:04:58 75° NNW 18:10:02 10° ENE visible
17 Aug 9.5 20:26:37 10° WNW 20:29:16 17° NW 20:29:16 17° NW visible
18 Aug 8.5 19:15:03 10° W 19:18:58 28° NNW 19:22:35 15° NNE visible
19 Aug 7.5 18:03:53 10° W 18:08:13 51° NNW 18:13:01 10° NE visible
20 Aug 9.2 19:19:04 10° WNW 19:22:12 18° NNW 19:25:53 10° NNE visible
21 Aug 8.3 18:07:21 10° W 18:11:24 33° NNW 18:15:45 10° NE visible
22 Aug 9.7 19:24:49 10° NW 19:25:24 10° NNW 19:26:00 10° NNW visible
23 Aug 9.0 18:11:06 10° W 18:14:33 21° NNW 18:18:07 10° NNE visible
